SAS4434 ENTC-ENGM

Flight info

Callsign SAS4434
Flight time N/A
Altitude 36000
Route AMIMO DCT TUXOT Z101 SOMUB DCT BELGU
Aircraft A321/M-SDE3FGHIRWY/LB1

Departure

Time 2026-04-29 18:19
Airport Tromsø Airport (ENTC)

Arrival

Time N/A
Airport Oslo-Gardermoen International Airport (ENGM)
Time Latitude Longitude Altitude Speed Heading
2026-04-29 17:54 69.67928 18.90907 -8 ft 0 kts 283°
2026-04-29 18:10 69.67928 18.90908 -8 ft 0 kts 283°
2026-04-29 18:10 69.67928 18.90907 -8 ft 0 kts 283°
2026-04-29 18:10 69.67925 18.90941 -7 ft 2 kts 283°
2026-04-29 18:11 69.67921 18.90983 -7 ft 2 kts 283°
2026-04-29 18:11 69.67918 18.91025 -6 ft 2 kts 283°
2026-04-29 18:11 69.67915 18.91067 -5 ft 2 kts 283°
2026-04-29 18:11 69.67911 18.91109 -4 ft 2 kts 283°
2026-04-29 18:12 69.67908 18.91151 -3 ft 2 kts 298°
2026-04-29 18:12 69.67898 18.91182 -3 ft 2 kts 327°
2026-04-29 18:12 69.67884 18.91198 -2 ft 2 kts 352°
2026-04-29 18:12 69.67873 18.91198 -2 ft 0 kts 11°
2026-04-29 18:13 69.67866 18.91193 -2 ft 0 kts 14°
2026-04-29 18:14 69.67883 18.91204 -2 ft 7 kts 13°
2026-04-29 18:15 69.67962 18.91256 -1 ft 14 kts 13°
2026-04-29 18:15 69.68073 18.91331 0 ft 16 kts 13°
2026-04-29 18:15 69.68190 18.91407 0 ft 18 kts 13°
2026-04-29 18:15 69.68323 18.91490 -2 ft 20 kts
2026-04-29 18:16 69.68471 18.91515 -7 ft 23 kts 13°
2026-04-29 18:16 69.68636 18.91627 -14 ft 23 kts 14°
2026-04-29 18:16 69.68773 18.91733 -15 ft 15 kts 48°
2026-04-29 18:16 69.68767 18.91945 -11 ft 8 kts 106°
2026-04-29 18:17 69.68755 18.92072 -7 ft 3 kts 105°
2026-04-29 18:17 69.68755 18.92082 -6 ft 1 kts 105°
2026-04-29 18:17 69.68753 18.92116 -5 ft 0 kts 97°
2026-04-29 18:17 69.68737 18.92150 -3 ft 8 kts 171°
2026-04-29 18:18 69.68703 18.92140 -2 ft 0 kts 193°
2026-04-29 18:19 69.68559 18.92043 -1 ft 62 kts 192°
2026-04-29 18:19 69.67868 18.91579 17 ft 137 kts 193°
2026-04-29 18:19 69.66928 18.90926 735 ft 139 kts 195°
2026-04-29 18:20 69.66047 18.90368 1628 ft 131 kts 197°
2026-04-29 18:20 69.65189 18.89845 2103 ft 129 kts 200°
2026-04-29 18:20 69.64288 18.89245 2372 ft 140 kts 201°
2026-04-29 18:20 69.63300 18.88578 2639 ft 152 kts 201°
2026-04-29 18:21 69.62209 18.87842 2897 ft 168 kts 200°
2026-04-29 18:21 69.61034 18.87063 3198 ft 182 kts 199°
2026-04-29 18:21 69.59743 18.86212 3497 ft 200 kts 199°
2026-04-29 18:21 69.58340 18.85231 3796 ft 218 kts 202°
2026-04-29 18:22 69.56881 18.83649 4125 ft 235 kts 210°
2026-04-29 18:22 69.55364 18.81463 4601 ft 250 kts 212°
2026-04-29 18:22 69.53835 18.79187 5312 ft 255 kts 213°
2026-04-29 18:22 69.52251 18.76834 6074 ft 258 kts 213°
2026-04-29 18:23 69.50675 18.74493 6805 ft 262 kts 214°
2026-04-29 18:23 69.49049 18.72076 7510 ft 266 kts 214°
2026-04-29 18:23 69.47405 18.69638 8179 ft 272 kts 214°
2026-04-29 18:23 69.45724 18.67148 8846 ft 277 kts 214°
2026-04-29 18:24 69.44022 18.64633 9489 ft 283 kts 214°
2026-04-29 18:24 69.42278 18.62061 10113 ft 288 kts 214°
2026-04-29 18:24 69.40472 18.59403 10547 ft 301 kts 214°
2026-04-29 18:24 69.38561 18.56588 10857 ft 317 kts 214°
2026-04-29 18:25 69.36577 18.53672 11160 ft 333 kts 214°
2026-04-29 18:25 69.34481 18.50610 11485 ft 347 kts 213°
2026-04-29 18:25 69.32285 18.47590 12015 ft 356 kts 211°
2026-04-29 18:25 69.30029 18.44802 12633 ft 359 kts 210°
2026-04-29 18:26 69.27727 18.41942 13217 ft 363 kts 210°
2026-04-29 18:26 69.25433 18.39098 13816 ft 366 kts 210°
2026-04-29 18:26 69.23093 18.36203 14396 ft 370 kts 210°
2026-04-29 18:26 69.20732 18.33288 14937 ft 374 kts 210°
2026-04-29 18:27 69.18376 18.30391 15473 ft 378 kts 210°
2026-04-29 18:27 69.15944 18.27404 16017 ft 382 kts 210°
2026-04-29 18:27 69.13540 18.24457 16552 ft 385 kts 210°
2026-04-29 18:27 69.11083 18.21452 17098 ft 388 kts 210°
2026-04-29 18:28 69.08617 18.18446 17579 ft 392 kts 210°
2026-04-29 18:28 69.06122 18.15416 18077 ft 396 kts 210°
2026-04-29 18:28 69.03578 18.12333 18542 ft 400 kts 210°
2026-04-29 18:28 69.01042 18.09267 19034 ft 403 kts 210°
2026-04-29 18:29 68.98470 18.06161 19560 ft 405 kts 210°
2026-04-29 18:29 68.95913 18.03090 20042 ft 407 kts 210°
2026-04-29 18:29 68.93313 17.99976 20513 ft 410 kts 211°
2026-04-29 18:29 68.90713 17.96810 20973 ft 411 kts 212°
2026-04-29 18:30 68.88177 17.93300 21451 ft 409 kts 216°
2026-04-29 18:30 68.85706 17.89446 21934 ft 409 kts 217°